Fort Wayne Police Department
Fort Wayne Police Department
Emergencies Call: 911
Non-Emergencies: (260) 427-1222
report drug house

Daily Activity Logs

Activity Log for August 5, 2013 Community Search

Incident Time Nature Address
13F114926 00:05:24 30 TRAFFIC STOP 1100 BROADWAY
13F114927 00:17:33 16V PICKUP VID 00 MAIN ST E
13F114928 00:29:50 48 SUSPICIOUS 2300 ABBEY DR
13F114929 00:52:57 1 MEET 00 MAIN ST E
13F114930 00:56:04 51,35 4700 SPEEDWAY DR
13F114931 01:00:26 44LM 2000 LATHROP DR
13F114932 01:04:59 48 SUSPICIOUS 500 FOURTH ST W
13F114933 01:05:59 96 BATTERY 2400 GETZ RD
13F114934 01:08:10 43 DISTURBANCE 1200 ST MARYS AVE
13F114935 01:13:00 43 DISTURBANCE 400 ROSE LN
13F114936 01:13:06 50IP BURG I/P 1600 HINTON DR
13F114937 01:20:24 911 HANG UP 4600 TAYLOR ST
13F114938 01:23:59 66 72 HOUR 2200 RANDALLIA DR
13F114939 01:40:05 113 SHOTS FIRED 5300 KYLE RD
13F114940 01:49:07 40A AUDIBLE 700 BENDERLOCK WAY
13F114941 01:49:08 63 CONTACT 700 DEWALD ST W
13F114942 01:51:10 43 DISTURBANCE 3300 OLIVER ST
13F114943 02:02:00 48,36 3700 CENTRAL DR
13F114944 02:07:50 22I JUV INVEST 1400 BARTHOLD ST
13F114945 02:09:01 111D DOG 2600 LINCOLNDALE AVE
13F114946 02:29:48 40 ALARM 6200 LIMA RD
13F114947 02:49:46 113 SHOTS FIRED 1100 STATE BLVD W
13F114948 02:56:49 129 2300 ST MARYS AVE
13F114949 03:04:31 30 TRAFFIC STOP 1400 MAUMEE AVE & SCHICK ST
13F114950 03:06:33 44 NUISANCE 1400 BARTHOLD ST
13F114951 03:27:38 48 SUSPICIOUS 2400 KENSINGTON BLVD
13F114952 03:40:24 39 STOLEN VEHIC 4200 CLINTON ST S
13F114953 03:46:26 43 DISTURBANCE 3200 PORTAGE BLVD
13F114954 03:53:35 44LM 7600 MILL RUN DR
13F114955 03:55:23 48,35 11700 WESTWIND DR
13F114956 04:00:17 63 CONTACT 900 COLISEUM BLVD E
13F114957 04:02:10 63 CONTACT 2900 GOSHEN RD
13F114958 04:10:10 EMS 1900 DREXEL AVE
13F114959 04:13:18 63 CONTACT 4000 WEBSTER ST
13F114960 04:14:11 50JO 2700 ST LOUIS AVE
13F114961 04:23:34 40A AUDIBLE 3600 GOSHEN RD
13F114962 04:25:04 16V PICKUP VID 00 MAIN ST E
13F114963 04:30:42 40I INTRUSION 5000 SPEEDWAY DR
13F114964 04:33:30 911 HANG UP 6500 COVINGTON RD
13F114965 04:53:29 44 NUISANCE 400 WALLEN HILLS DR
13F114966 05:01:58 48 SUSPICIOUS 300 PAULDING RD E
13F114967 05:03:21 48,36 800 COLISEUM BLVD N
13F114968 05:42:22 97 FOUND ITEMS 200 CLINTON ST S
13F114969 05:56:26 30 TRAFFIC STOP 4100 SMITH RD & ENGLE RD
13F114970 05:59:02 113 SHOTS FIRED 3000 BARR ST S
13F114971 05:59:13 102,TX THREATS 1200 RIVERMET AVE
13F114972 06:00:40 18 WORK TRAFFIC 2200 REYNOLDS ST
13F114973 06:35:05 46,96 3600 BOWSER AVE
13F114974 06:39:32 EMS 5100 CORONET CT
13F114975 06:45:00 51 THEFT 300 WILLIAMS ST E
13F114976 07:03:21 51 THEFT 4100 STANTON DR
13F114977 07:06:09 40A AUDIBLE 1400 BROADWAY
13F114978 07:08:47 EMS 2800 CASTLE DR
13F114979 07:09:03 48,35 2000 WAYNE TRACE E
13F114980 07:24:23 40A AUDIBLE 5800 INDUSTRIAL RD
13F114981 07:49:50 46 DOMESTIC 6300 KENT RD
13F114982 08:01:43 EMS 4900 COVENTRY PKWY
13F114983 08:04:54 51 THEFT 8000 CLINTON ST N
13F114984 08:09:01 41 MAN DOWN 6800 WOODCREST DR
13F114985 08:11:52 70 STRUCTURE 2200 REYNOLDS ST
13F114986 08:15:13 LP LOST PROPERT 2200 RANDALLIA DR
13F114987 08:17:21 1 MEET 500 JEFFERSON BLVD W
13F114988 08:17:55 51 THEFT 1000 RUDISILL BLVD W
13F114989 08:18:55 51 THEFT 4000 TRANSPORTATION DR
13F114991 08:34:37 23 VANDALISM 5200 ANN HACKLEY RD
13F114992 08:35:35 48 SUSPICIOUS 6200 LIMA RD
13F114993 08:39:31 911 HANG UP 4500 LILLIE ST
13F114996 08:43:55 40ATM ATM ALARM 700 COLISEUM BLVD E
13F115001 08:51:06 40A AUDIBLE 2900 MAPLECREST RD
13F115002 08:51:53 63 CONTACT 2100 ST MARYS AVE
13F115004 08:54:03 22N CHILD NEGLE 600 CALHOUN ST S & MAIN ST E
13F115005 08:59:19 30 TRAFFIC STOP 7200 ARDMORE AVE & LOWER HUNTINGTO
13F115006 08:59:20 17 MOTOR CHECK 900 COLISEUM BLVD W
13F115007 09:01:03 99 NARCOTICS 600 GROWTH AVE
13F115008 09:07:30 40A AUDIBLE 4200 FLAGSTAFF CV
13F115009 09:08:36 65T SUICIDE THR 3300 WEBSTER ST
13F115012 09:15:16 63 CONTACT 3400 SHERMAN BLVD
13F115013 09:15:58 63 CONTACT 400 COLISEUM BLVD E
13F115014 09:22:10 43 DISTURBANCE 2300 JOHN ST
13F115015 09:22:19 17 MOTOR CHECK 1200 LILLIE ST
13F115016 09:23:26 LP LOST PROPERT 4300 LAFAYETTE ST S
13F115017 09:28:25 53 ARMED ROB 2900 CHESTNUT ST
13F115018 09:29:11 15 ASSIST 1800 WAYNE TRACE E & ANTHONY BLVD
13F115019 09:29:31 51 THEFT 6000 MAPLECREST RD
13F115020 09:30:55 16V PICKUP VID 00 MAIN ST E
13F115021 09:33:21 51,35 1900 HOBSON RD
13F115022 09:34:28 51 THEFT 2800 CHESTNUT ST
13F115023 09:36:35 46 DOMESTIC 3100 EUCLID AVE
13F115024 09:38:06 50 BURGLARY 1800 COLISEUM BLVD W
13F115025 09:39:49 63 CONTACT 2200 CAREW ST & STATE BLVD E
13F115026 09:43:40 TOW 100 COLUMBIA ST W
13F115027 09:43:53 33,34 1700 CREIGHTON AVE E & ANTHONY BLV
13F115028 09:46:05 65A SUICIDE ATT 1000 COLUMBIA AVE
13F115030 09:48:00 EMS 6600 JOHN ST
13F115029 09:48:14 16,97 1100 FAIRFIELD AVE
13F115031 09:48:53 30 TRAFFIC STOP 7200 ARDMORE AVE & LOWER HUNTINGTO
13F115032 09:50:02 25 PD ACCIDENT 2200 COLISEUM BLVD W & INVESTMENT
13F115033 09:51:09 911 HANG UP 300 WASHINGTON BLVD E
13F115034 09:55:41 14 WARRANT 3600 AVONDALE DR
13F115035 09:56:23 63 CONTACT 6300 ALVAREZ DR
13F115036 10:00:07 25 PD ACCIDENT 1200 THOMAS RD S & ILLINOIS RD
13F115037 10:01:44 911 HANG UP 1500 DUBOIS ST
13F115038 10:03:24 26 PI ACCIDENT 3800 JEFFERSON BLVD W & ILLINOIS R
13F115039 10:04:36 40I INTRUSION 3200 CIERA CT
13F115040 10:06:40 TOW 2000 WAYNE TRACE E
13F115041 10:07:13 51 THEFT 1500 WAYNE ST E
13F115042 10:07:40 83 INFO REPORT 1600 SHERMAN BLVD
13F115043 10:12:25 40A AUDIBLE 8000 PEPPERWOOD CT
13F115044 10:16:22 23 VANDALISM 6000 STELLHORN RD
13F115045 10:17:36 39U UNAUTHORIZE 900 WASHINGTON BLVD E
13F115046 10:20:12 51 THEFT 2300 ABBEY DR
13F115047 10:21:38 911 HANG UP 1500 PROGRESS RD
13F115048 10:21:58 101 OPEN DOOR 3000 ADAMS ST
13F115049 10:25:13 63 CONTACT 2700 WASHINGTON CENTER RD W
13F115050 10:26:50 EMS 4900 PROJECTS DR
13F115051 10:28:54 63Z ZACH CHECK 4600 GLENMARY DR
13F115053 10:30:54 46,96 900 OAKLAWN CT
13F115054 10:32:06 16,97 2500 FARNSWORTH DR
13F115055 10:32:10 53 ARMED ROB 3000 BROADWAY & WILDWOOD AVE W
13F115056 10:37:27 48 SUSPICIOUS 900 WASHINGTON BLVD E
13F115058 10:41:20 48,36 4900 LIVE OAK CT
13F115059 10:43:48 46 DOMESTIC 00 MAIN ST E
13F115061 10:52:30 43 DISTURBANCE 3600 REED ST
13F115062 10:53:32 101 OPEN DOOR 1400 TAYLOR ST
13F115063 10:53:55 46,96 4000 SMITH ST
13F115064 10:57:06 50 BURGLARY 200 WALLACE ST W
13F115065 11:01:31 113 SHOTS FIRED 3900 BARR ST S
13F115066 11:05:20 72 FAIL TO PAY 7000 BLUFFTON RD
13F115067 11:06:07 48 SUSPICIOUS 2200 LAKE AVE
13F115068 11:08:17 39R STOLEN RECO 6700 BRADBURY AVE
13F115069 11:08:35 72 FAIL TO PAY 7000 BLUFFTON RD
13F115070 11:10:06 50 BURGLARY 700 DEWALD ST W
13F115071 11:11:50 40A AUDIBLE 4000 INDIANA AVE
13F115072 11:13:27 51 THEFT 2000 MCKINNIE AVE
13F115073 11:14:26 16V PICKUP VID 00 MAIN ST E
13F115074 11:16:17 911 HANG UP 2600 INDIANA AVE
13F115075 11:17:20 EMS 4800 WEISSER PARK AVE
13F115076 11:21:40 911 HANG UP 6300 COVINGTON RD
13F115078 11:22:41 17 MOTOR CHECK 2900 FERGUSON RD W
13F115079 11:23:47 57 STRONG ARM 400 MADISON ST
13F115080 11:24:16 51,35 400 HUFFMAN ST
13F115081 11:24:40 97A LOST ITEMS 1900 CAREW ST
13F115082 11:24:53 50,ATTEMPTED 8000 DURBAN DR
13F115083 11:26:31 51 THEFT 1800 BROADWAY
13F115084 11:28:56 46 DOMESTIC 4200 COLDWATER RD
13F115085 11:30:18 51,35 2700 HOAGLAND AVE
13F115086 11:34:11 48 SUSPICIOUS 6000 BLUFFTON RD
13F115087 11:40:57 11C CAGE CAR 100 COLUMBIA ST W
13F115088 11:42:46 43 DISTURBANCE 3600 AVONDALE DR
13F115089 11:43:41 911 HANG UP 300 BERRY ST W
13F115090 11:51:47 101 OPEN DOOR 6600 JOHN ST
13F115091 11:53:32 48,36 5200 LYNHURST DR & WILLOWHURST DR
13F115092 11:55:26 25 PD ACCIDENT 2200 KENTUCKY AVE & STATE BLVD E
13F115093 11:55:36 43 DISTURBANCE 700 WAGNER ST
13F115094 12:01:41 911 HANG UP 8000 CARNEGIE BLVD
13F115095 12:01:56 911 HANG UP 3300 FAIRFIELD AVE
13F115096 12:06:34 113 SHOTS FIRED 1200 FAIRFIELD AVE
13F115097 12:07:36 911 HANG UP 2100 ST MARYS AVE
13F115098 12:23:38 30 TRAFFIC STOP 5800 LIMA RD & WASHINGTON CENTER R
13F115099 12:24:52 51,35 400 WILLIAMS ST W
13F115100 12:27:19 17 MOTOR CHECK 2200 ALABAMA AVE
13F115101 12:27:57 911 HANG UP 4000 MONROE ST S
13F115102 12:28:06 34 TRAFF HAZARD 1100 AIRPORT EXPRESSWAY & LOWER HU
13F115104 12:33:11 25 PD ACCIDENT 100 BERRY ST E & CLINTON ST S
13F115105 12:34:07 101 OPEN DOOR 700 DAVIS ST
13F115106 12:37:08 80 CIVIL INVEST 5300 HILLEGAS RD
13F115107 12:38:15 911 HANG UP 1100 DELAWARE AVE
13F115108 12:38:36 51,35 3900 STATE BLVD E
13F115109 12:38:43 25 PD ACCIDENT 6800 BLUFFTON RD
13F115110 12:38:45 46 DOMESTIC 8600 JEFFERSON BLVD W & COVENTRY L
13F115111 12:42:52 911 HANG UP 4400 BUELL DR
13F115112 12:43:09 11C CAGE CAR 00 MAIN ST E
13F115113 12:45:59 83 INFO REPORT 3400 INWOOD DR
13F115114 12:46:14 62 PARTY ARMED 2600 FAIRFIELD VIEW PL
13F115115 12:47:26 48 SUSPICIOUS 1800 CAREW ST
13F115116 12:49:32 50 BURGLARY 3100 ROBINWOOD DR
13F115117 12:51:54 51 THEFT 700 BROADWAY
13F115118 12:52:10 30 TRAFFIC STOP 30800 I 69 SB
13F115119 12:53:26 51 THEFT 3700 PARKHILL AVE
13F115120 12:54:11 96IP 1100 WASHINGTON BLVD W
13F115121 12:54:52 911 HANG UP 3700 WALDEN RUN
13F115122 12:55:16 911 HANG UP 2200 RANDALLIA DR
13F115123 12:57:50 129 200 PASSIER CT
13F115124 13:03:15 17 MOTOR CHECK 2700 WASHINGTON CENTER RD W
13F115125 13:04:54 911 HANG UP 3000 WEBSTER ST
13F115126 13:05:17 911 HANG UP 700 TILLMAN RD E
13F115127 13:07:48 62 PARTY ARMED 500 ST MARTINS ST
13F115128 13:08:02 1 MEET 3700 ANTHONY BLVD S
13F115129 13:09:29 65T SUICIDE THR 10100 WHITE CEDAR RD
13F115130 13:12:46 911 HANG UP 3300 ALEXANDER ST
13F115131 13:13:12 911 HANG UP 300 RUDISILL BLVD W
13F115132 13:13:17 TOW 4300 LAFAYETTE ST S
13F115133 13:14:47 37 PARKING VIOL 2700 CRESCENT AVE & CURDES AVE
13F115134 13:17:28 EMS 700 TENNESSEE AVE
13F115135 13:21:26 30 TRAFFIC STOP 4600 STELLHORN RD
13F115136 13:28:39 102 THREATS 800 WILT ST
13F115137 13:28:39 26 PI ACCIDENT 1100 WASHINGTON BLVD W
13F115138 13:28:44 25 PD ACCIDENT 3200 DUPONT RD E & I 69 NB
13F115139 13:28:51 25 PD ACCIDENT 31600 I 69 NB
13F115140 13:29:08 25 PD ACCIDENT 3200 DUPONT RD E & I 69 NB
13F115142 13:32:57 22N CHILD NEGLE 5400 SOUTHERN CT
13F115143 13:38:06 LP LOST PROPERT 3500 SMITH ST
13F115144 13:38:39 50 BURGLARY 100 WILLIAMS ST W
13F115145 13:39:58 25 PD ACCIDENT 31300 I 69 NB & AUBURN RD
13F115146 13:48:39 43 DISTURBANCE 3800 GOSHEN RD
13F115147 13:49:57 51 THEFT 4200 AVONDALE DR
13F115148 13:53:47 55 FIGHT 2500 CALLMAN AVE
13F115149 13:55:23 14 WARRANT 1200 HUESTIS AVE
13F115150 14:00:49 48 SUSPICIOUS 7900 SERENITY DR
13F115151 14:03:26 48,36 1100 FULTON ST
13F115152 14:04:49 63 CONTACT 300 WASHINGTON CENTER RD W & INDUS
13F115153 14:05:24 30 TRAFFIC STOP 4000 ICE WAY & LIMA RD
13F115154 14:06:24 51 THEFT 3700 CLINTON ST N
13F115155 14:08:40 EMS 900 FRANCIS ST
13F115156 14:11:06 64 NOT SEEN 9200 LIMA RD
13F115157 14:12:31 99 NARCOTICS 5600 OLD DOVER BLVD
13F115158 14:13:34 51,35 6400 SHADY CREEK CT
13F115159 14:16:31 22I JUV INVEST 2600 ST MARYS AVE
13F115160 14:20:34 51 THEFT 3000 LILLIE ST
13F115161 14:21:37 63 CONTACT 6500 WINTER ST
13F115162 14:24:56 25 PD ACCIDENT 3500 STATE BLVD E & LAVERNE AVE
13F115163 14:26:26 96JO 7400 COLD SPRINGS BLVD
13F115164 14:26:36 911 HANG UP 200 NORTHEAST DR
13F115165 14:29:34 23,35 VAND VEH 9900 CROWN POINT DR
13F115166 14:29:55 41 MAN DOWN 2000 BROADWAY
13F115167 14:30:51 14 WARRANT 1900 CAREW ST
13F115168 14:32:58 51 THEFT 3500 BASS RD
13F115169 14:34:48 102 THREATS 1500 SWINNEY AVE
13F115170 14:35:40 33,34 800 COLISEUM BLVD N
13F115171 14:37:08 HARASSMENT 5900 CALHOUN ST S
13F115172 14:37:48 66V MENTAL VIOL 2500 RIVER COVE TRL
13F115173 14:39:55 18 WORK TRAFFIC 4100 SMITH RD & ENGLE RD
13F115174 14:40:16 30 TRAFFIC STOP 1000 SPRING ST & ST MARYS AVE
13F115175 14:41:04 40A AUDIBLE 6100 ALTADENA DR
13F115176 14:41:21 30 TRAFFIC STOP 300 COLISEUM BLVD E & COLDWATER RD
13F115177 14:44:16 30 TRAFFIC STOP 5000 ST JOE RD & CANTERBURY BLVD
13F115178 14:45:13 17 MOTOR CHECK 1300 STATE BLVD W
13F115179 14:46:57 911 HANG UP 6600 STATE BLVD E
13F115180 14:47:00 14 WARRANT 5600 COVENTRY LN
13F115181 14:47:43 41 MAN DOWN 6600 STATE BLVD E
13F115182 14:51:21 25 PD ACCIDENT 1000 BURGESS ST & ST MARYS AVE
13F115183 14:55:21 911 HANG UP 5300 COLDWATER RD
13F115184 15:01:31 51 THEFT 7500 DECATUR RD
13F115185 15:01:49 43 DISTURBANCE 800 BUCHANAN ST
13F115186 15:03:58 48,35 3000 STATE BLVD E
13F115187 15:04:08 89 BOMB THREAT 12500 LIMA RD
13F115188 15:04:38 33,34 5800 LIMA RD & WASHINGTON CENTER R
13F115189 15:05:02 34 TRAFF HAZARD 3700 WASHINGTON CENTER RD W & HUGU
13F115190 15:05:55 25HS HIT SKIP 5000 CLINTON ST N
13F115191 15:08:26 66 72 HOUR 2200 RANDALLIA DR
13F115192 15:09:24 48 SUSPICIOUS 8100 LIMA RD
13F115194 15:10:04 1 MEET 900 LIBRARY PLAZA
13F115195 15:11:53 25 PD ACCIDENT 6200 ROTHMAN RD & MAPLECREST RD
13F115196 15:17:19 25 PD ACCIDENT 3300 OXFORD ST
13F115197 15:20:23 30 TRAFFIC STOP 7400 BLUFFTON RD & OLD TRAIL RD
13F115213 15:23:47 108 FOLLOWUP 4200 FAIRFIELD AVE
13F115198 15:24:47 16V PICKUP VID 00 MAIN ST E
13F115199 15:26:57 56 MOLESTING 5100 STONEHEDGE BLVD
13F115200 15:30:33 51 THEFT 4200 LILLIE ST
13F115201 15:31:28 50IP BURG I/P 2300 WHITE HALL DR
13F115202 15:32:11 25HS HIT SKIP 400 STATE BLVD E
13F115203 15:34:08 25 PD ACCIDENT 5300 TRIER RD
13F115204 15:38:35 46 DOMESTIC 700 WAYNE ST W
13F115205 15:42:44 25 PD ACCIDENT 100 CREIGHTON AVE E & CALHOUN ST S
13F115206 15:43:05 51 THEFT 4300 COLONIAL AVE S
13F115207 15:44:25 40A AUDIBLE 1100 ELMWOOD AVE
13F115208 15:45:09 25 PD ACCIDENT 800 BROADWAY & WAYNE ST W
13F115209 15:45:18 911 HANG UP 7000 COLDWATER RD
13F115210 15:45:29 911 HANG UP 4900 GAYWOOD DR
13F115211 15:46:07 46 DOMESTIC 3100 BOWSER AVE
13F115212 15:48:20 48,36 6300 LIMA RD
13F115214 15:51:34 83 INFO REPORT 6500 COVINGTON RD
13F115215 15:53:46 38 LOST/STOLEN 10800 WILD RIDGE PL
13F115216 15:55:00 50IP BURG I/P 1600 MAIN ST W
13F115217 15:56:08 46 DOMESTIC 2100 HANNA ST S
13F115218 15:57:43 26 PI ACCIDENT 8800 LIMA RD & WALLEN RD W
13F115219 15:58:33 17 MOTOR CHECK 3400 ALEXANDER ST
13F115220 15:59:55 51IP 4200 JEFFERSON BLVD W
13F115221 16:00:16 911 HANG UP 1400 CHANTERELLE DR
13F115222 16:02:02 30 TRAFFIC STOP 1200 MAIN ST W
13F115223 16:07:00 1 MEET 3000 ST LOUIS AVE
13F115224 16:13:20 20 PROBLEM UNK 2100 BROADWAY
13F115225 16:13:47 103 UNWANTED 1400 WELLS ST
13F115226 16:18:23 25 PD ACCIDENT 100 MAIN ST E & CLINTON ST S
13F115227 16:21:21 911 HANG UP 400 MASTERSON AVE E
13F115228 16:23:20 39 STOLEN VEHIC 4200 COLDWATER RD
13F115229 16:25:00 25 PD ACCIDENT 200 RUDISILL BLVD E & CLINTON ST S
13F115230 16:25:09 25HS HIT SKIP 3700 ILLINOIS RD & HILLEGAS RD S
13F115231 16:25:16 25 PD ACCIDENT 5700 NORTHCREST DR & DARTMOUTH DR
13F115232 16:30:14 25 PD ACCIDENT 700 DUPONT RD E & COLDWATER RD
13F115233 16:30:24 25 PD ACCIDENT 1800 BROADWAY & STOPHLET ST
13F115234 16:32:20 51 THEFT 200 PETTIT AVE E
13F115235 16:32:27 30 TRAFFIC STOP 600 LEWIS ST E & HANNA ST S
13F115236 16:32:35 48,36 300 WILLIAMS ST W
13F115237 16:32:41 67 INDECENT 700 COLISEUM BLVD E
13F115238 16:33:37 40A AUDIBLE 500 COOMBS ST
13F115239 16:37:29 50 BURGLARY 4200 BOWSER AVE
13F115241 16:38:41 43 DISTURBANCE 8500 BRIDGEWAY DR
13F115240 16:39:09 22N CHILD NEGLE 200 BERRY ST E
13F115242 16:41:10 25 PD ACCIDENT 10300 BLUFFTON RD & FERGUSON RD W
13F115243 16:42:47 17 MOTOR CHECK 9500 LIMA RD
13F115244 16:43:03 24 MISSING PERS 2900 MONROE ST S
13F115245 16:43:37 1 MEET 900 WASHINGTON BLVD E
13F115246 16:46:39 911 HANG UP 800 BUCHANAN ST
13F115247 16:49:54 43,62 4100 REED ST
13F115248 16:50:35 25 PD ACCIDENT 4000 LIMA RD & ICE WAY
13F115249 16:55:17 25 PD ACCIDENT 300 PONTIAC ST E & LAFAYETTE ST S
13F115250 16:55:59 25 PD ACCIDENT 2100 HARRISON ST S & DEWALD ST W
13F115251 16:56:25 99 NARCOTICS 5300 COLDWATER RD
13F115252 17:00:06 46,96 2200 HOBSON DR & STATE BLVD E
13F115253 17:00:38 911 HANG UP 3200 DIPLOMAT DR
13F115254 17:00:55 911 HANG UP 4200 HOLTON AVE
13F115255 17:02:10 25 PD ACCIDENT 4200 HOLTON AVE & MCKINNIE AVE
13F115256 17:03:02 11C CAGE CAR 1700 APPLE GLEN BLVD
13F115257 17:04:53 911 HANG UP 2100 JOHN ST
13F115258 17:09:10 51JO 5600 CHURCHILL DR & HOEVELWOOD DR
13F115259 17:10:26 1 MEET 8500 BRIDGEWAY DR
13F115260 17:11:08 51 THEFT 3500 WAYNE TRACE
13F115261 17:13:13 911 HANG UP 200 COX DR W
13F115262 17:13:46 96 BATTERY 6900 WINFORD SHOALS
13F115263 17:14:00 1 MEET 5300 DYERBROOK PASS
13F115264 17:14:11 911 HANG UP 2300 ELYETTA ST
13F115265 17:15:41 911 HANG UP 2300 ELYETTA ST
13F115266 17:16:35 34 TRAFF HAZARD 4000 CLINTON ST S
13F115267 17:17:47 48,35 7600 ANTHONY BLVD S
13F115268 17:18:04 111D DOG 2400 WELLS ST
13F115269 17:19:41 911 HANG UP 7500 LAFAYETTE ST S & SOUTHTOWN BL
13F115270 17:19:55 33,34 2900 GOSHEN RD & COLISEUM BLVD W
13F115271 17:21:55 61 RAPE 2800 DUPONT RD E
13F115272 17:24:08 46 DOMESTIC 200 SEMINOLE CIR S
13F115273 17:25:25 46,96 300 BELMONT DR W
13F115274 17:28:24 46 DOMESTIC 1800 LINK ST
13F115275 17:28:51 34 TRAFF HAZARD 5300 COLDWATER RD
13F115276 17:29:53 22N CHILD NEGLE 1700 APPLE GLEN BLVD
13F115277 17:30:51 46 DOMESTIC 3000 POMEROY PL
13F115278 17:33:07 48,35 1300 WABASH AVE
13F115279 17:35:22 1 MEET 100 BAKER ST E
13F115280 17:36:54 48 SUSPICIOUS 500 JEFFERSON BLVD W
13F115281 17:37:54 911 HANG UP 300 BERRY ST W
13F115282 17:39:43 15 ASSIST 8100 COMMUNITY LN
13F115283 17:41:06 46 DOMESTIC 500 ARCHER AVE
13F115284 17:42:51 51 THEFT 00 MAIN ST E
13F115285 17:46:09 40P PANIC ALARM 2500 FAIRFIELD AVE
13F115286 17:49:59 48 SUSPICIOUS 900 HARMAR ST
13F115287 17:51:44 911 HANG UP 7900 JEFFERSON BLVD W
13F115288 17:54:05 11C CAGE CAR 4200 COLDWATER RD
13F115289 17:54:09 30 TRAFFIC STOP 4900 LIMA RD
13F115290 17:56:03 51 THEFT 400 PAULDING RD W
13F115291 17:56:18 23 VANDALISM 6600 KLINE ST
13F115292 17:56:44 51JO 2500 WEBSTER ST
13F115293 17:59:08 14S SERVING WAR 200 RUDISILL BLVD E & CLINTON ST S
13F115294 17:59:50 80 CIVIL INVEST 1700 WINDMILL RIDGE RUN
13F115295 18:01:33 43 DISTURBANCE 600 LEWIS ST E
13F115299 18:02:07 14S SERVING WAR 3700 WASHINGTON BLVD E
13F115296 18:05:33 48 SUSPICIOUS 1100 TAYLOR ST
13F115297 18:05:59 63Z ZACH CHECK 1100 HIGH ST
13F115298 18:06:11 43 DISTURBANCE 1100 STATE BLVD W
13F115300 18:10:05 43 DISTURBANCE 4800 REED ST
13F115301 18:12:30 46 DOMESTIC 7400 VALLEY MEADOWS DR
13F115302 18:14:06 63Z ZACH CHECK 1800 HIGH ST
13F115303 18:15:53 46 DOMESTIC 800 WILT ST
13F115304 18:17:10 30 TRAFFIC STOP 1500 RUMSEY AVE & SPRING ST
13F115305 18:18:48 43 DISTURBANCE 5000 LESTER DR
13F115306 18:20:13 46 DOMESTIC 4400 EXECUTIVE BLVD & COLISEUM BLV
13F115307 18:21:16 911 HANG UP 300 RUDISILL BLVD E
13F115308 18:24:40 63Z ZACH CHECK 1300 ELM ST
13F115309 18:25:12 63 CONTACT 1400 SPY RUN AVE
13F115310 18:32:27 63 CONTACT 1400 SPY RUN AVE
13F115311 18:33:18 23IP VANDALISM 1500 WELLS ST
13F115312 18:33:42 51 THEFT 300 BERRY ST W
13F115313 18:39:09 39 STOLEN VEHIC 5900 TURTLE CREEK DR
13F115314 18:39:53 43 DISTURBANCE 2100 EDEN ST
13F115315 18:43:52 63 CONTACT 4900 OLIVER ST
13F115316 18:47:20 101 OPEN DOOR 2000 SUNDOWN LN
13F115317 18:52:32 911 HANG UP 4200 ANTHONY BLVD S
13F115318 18:55:33 24 MISSING PERS 600 FIFTH ST
13F115319 18:57:08 51 THEFT 7200 SHADY LN
13F115320 18:59:12 63Z ZACH CHECK 3900 CLINTON ST N
13F115321 19:00:35 30 TRAFFIC STOP 4400 ST JOE RD & HOBSON RD
13F115322 19:03:02 22RN RUNAWAY 300 PETTIT AVE W
13F115323 19:03:28 EMS 8300 MAYSVILLE RD
13F115324 19:03:33 50IP BURG I/P 1300 MELROSE AVE & JESSIE AVE
13F115325 19:03:39 50 BURGLARY 2100 CASS ST
13F115326 19:05:52 33,34 6400 ST JOE RD
13F115327 19:07:37 40A AUDIBLE 8100 AUBURN RD
13F115328 19:08:55 43 DISTURBANCE 2200 CORTLAND AVE & STATE BLVD W
13F115329 19:10:18 63 CONTACT 300 COX DR W
13F115330 19:16:11 33 DISABLED VEH 6700 ANTHONY BLVD S
13F115331 19:19:17 40A AUDIBLE 1400 COLISEUM BLVD W
13F115332 19:20:10 911 HANG UP 900 MCKINNIE AVE
13F115333 19:25:51 40P PANIC ALARM 6300 DERBYSHIRE DR
13F115334 19:26:37 911 HANG UP 1100 COLISEUM BLVD N
13F115335 19:28:23 30 TRAFFIC STOP 3800 LIMA RD & FERNHILL AVE W
13F115336 19:29:20 46,96 800 UNION CHAPEL RD
13F115337 19:32:31 11C CAGE CAR 5300 COLDWATER RD
13F115338 19:34:13 48 SUSPICIOUS KYLE RD
13F115339 19:35:35 911 HANG UP 5200 STONECREEK TRL
13F115340 19:39:01 16,97 1600 HIGH ST
13F115341 19:39:53 23 VANDALISM 6800 LONDONDERRY LN
13F115342 19:43:38 40A AUDIBLE 2700 MARCY LN
13F115343 19:43:56 15 ASSIST 7300 HICKORY CREEK DR
13F115344 19:43:59 30 TRAFFIC STOP 3300 COLISEUM BLVD W
13F115345 19:46:15 37 PARKING VIOL 1700 WAYNE ST E & ANTHONY BLVD S
13F115346 19:54:06 15 ASSIST 7000 ELZEY ST
13F115347 19:54:24 911 HANG UP 4400 SOUTHPARK DR
13F115348 19:59:40 47 REMOVE ITEMS 2900 GOSHEN RD
13F115349 20:01:07 911 HANG UP 2100 CARTERTON DR
13F115350 20:04:44 44LM 7900 DECATUR RD
13F115351 20:05:37 103 UNWANTED 2700 OAK BOROUGH RUN
13F115352 20:06:21 96 BATTERY 2000 FOX POINT TRL
13F115353 20:07:52 30 TRAFFIC STOP 3600 WASHINGTON BLVD E
13F115354 20:11:27 30 TRAFFIC STOP 1400 COLISEUM BLVD E & PAUL SHAFFE
13F115355 20:11:37 96 BATTERY 7200 LAMONT DR
13F115356 20:12:26 99 NARCOTICS 12100 WAYCLIFFE CT
13F115357 20:13:47 48 SUSPICIOUS 300 BERRY ST W
13F115358 20:14:22 83 INFO REPORT 2000 TAYLOR ST
13F115359 20:15:17 43 DISTURBANCE 3100 PLAZA DR
13F115360 20:16:10 43 DISTURBANCE 5800 BUNT DR
13F115361 20:20:29 40A AUDIBLE 5600 GAYWOOD DR
13F115362 20:20:53 30 TRAFFIC STOP 2300 FAIRFIELD AVE
13F115363 20:24:52 30 TRAFFIC STOP 1900 WASHINGTON BLVD E & GRANT AVE
13F115364 20:29:01 53 ARMED ROB 4800 SMITH ST & PETTIT AVE E
13F115365 20:33:53 44 NUISANCE 200 FOURTH ST E
13F115366 20:34:01 48 SUSPICIOUS 5400 HOPKINTON DR
13F115367 20:34:39 911 HANG UP 200 DALMAN AVE
13F115368 20:36:31 46 DOMESTIC 5500 OLD DOVER BLVD
13F115369 20:37:35 51,35 900 GRANT AVE
13F115409 20:39:47 1 MEET 600 GLAZIER AVE
13F115370 20:40:26 43 DISTURBANCE 100 LEITH ST W
13F115371 20:41:17 911 HANG UP 1600 MAUMEE AVE
13F115372 20:42:45 30 TRAFFIC STOP 4100 OLD MILL RD & BRANNING AVE W
13F115373 20:46:00 30 TRAFFIC STOP 100 SUTTENFIELD AVE W & HARRISON S
13F115374 20:46:24 911 HANG UP 3600 SANDPOINT RD
13F115375 20:46:38 48 SUSPICIOUS 3100 CALHOUN ST S
13F115376 20:47:21 30 TRAFFIC STOP 600 CALHOUN ST S & MAIN ST E
13F115377 20:48:18 23,35 VAND VEH 500 TILLWATER LN
13F115378 20:48:57 46 DOMESTIC 1200 LEWIS ST E & OHIO ST
13F115379 20:50:07 48 SUSPICIOUS 2000 HARRISON ST S & BUTLER ST W
13F115380 20:51:07 34 TRAFF HAZARD 1600 JEFFERSON BLVD W & WASHINGTON
13F115381 20:53:53 40A AUDIBLE 2300 SPY RUN AVE
13F115382 20:55:16 43,62 700 THIRD ST
13F115383 20:57:09 48 SUSPICIOUS 1800 BLUFFTON RD
13F115384 20:57:23 103 UNWANTED 600 LEWIS ST E
13F115385 20:58:31 911 HANG UP 600 KINSMOOR AVE
13F115386 20:59:53 43 DISTURBANCE 2300 BOWSER AVE
13F115387 21:00:05 96 BATTERY 600 KINSMOOR AVE
13F115388 21:01:36 51 THEFT 7000 BLUFFTON RD
13F115389 21:02:47 63Z ZACH CHECK 300 TREELINE CV
13F115390 21:06:17 44FW 6900 BRIGHT OAKS TRL
13F115391 21:07:19 16V PICKUP VID 00 MAIN ST E
13F115392 21:09:51 99 NARCOTICS 6300 LIMA RD
13F115393 21:11:22 33 DISABLED VEH 31000 I 69 SB
13F115394 21:13:00 63 CONTACT 4100 ABBOTT ST
13F115395 21:14:08 30 TRAFFIC STOP 300 WASHINGTON BLVD E & LAFAYETTE
13F115396 21:14:22 30 TRAFFIC STOP 800 LEY RD & LIMA RD
13F115397 21:15:14 43 DISTURBANCE 1800 BLUFFTON RD
13F115399 21:19:26 63 CONTACT 3100 MCARTHUR DR
13F115398 21:20:02 63Z ZACH CHECK 4100 HARRIS RD
13F115400 21:25:16 102,TX THREATS 2300 PONTIAC ST E
13F115401 21:25:45 911 HANG UP 4500 HOLTON AVE
13F115402 21:26:54 911 HANG UP 1600 HIGH ST
13F115403 21:28:56 42 INTOX PERSON 1200 DUPONT RD W & RADBOURNE DR
13F115404 21:29:58 20 PROBLEM UNK 1100 HUGH ST
13F115405 21:30:42 22RN RUNAWAY 3100 CLINTON CT
13F115406 21:32:59 911 HANG UP 1900 WEBSTER ST
13F115407 21:33:10 50IP BURG I/P 600 LAWTON PL
13F115408 21:36:15 43,62 100 WILLIAMS ST W
13F115410 21:39:04 46 DOMESTIC 3500 CHEVIOT DR
13F115411 21:39:36 23,113 1200 ANTHONY BLVD N
13F115412 21:40:06 43 DISTURBANCE 2600 PRISCILLA LN
13F115413 21:42:06 44LM 1200 KORTE LN
13F115418 21:42:18 28 DUI 1900 GETZ RD
13F115414 21:42:20 48 SUSPICIOUS 400 CLINTON ST S & SUPERIOR ST E
13F115415 21:42:35 30 TRAFFIC STOP 400 TABER ST E & LAFAYETTE ST S
13F115416 21:42:55 23JO 100 LEITH ST W
13F115417 21:43:27 30 TRAFFIC STOP 100 CREIGHTON AVE E & CALHOUN ST S
13F115419 21:44:30 103 UNWANTED 300 PETTIT AVE W
13F115420 21:49:51 911 HANG UP 800 TENNESSEE AVE
13F115421 21:52:24 48 SUSPICIOUS 1800 LUMBARD ST & NEW HAVEN AVE
13F115422 21:56:17 30 TRAFFIC STOP 900 WASHINGTON BLVD E
13F115423 21:57:03 39 STOLEN VEHIC 5900 TURTLE CREEK DR
13F115424 22:01:19 48,36 11000 WINDSOR WOODS BLVD
13F115425 22:03:57 46,96 1900 DODGE AVE
13F115426 22:04:50 48,36 5400 HEWITT LN
13F115427 22:05:04 47 REMOVE ITEMS 2000 TAYLOR ST
13F115428 22:06:16 96JO 00 MAIN ST E
13F115429 22:09:10 99 NARCOTICS 2700 MILLBROOK DR
13F115430 22:14:21 40 ALARM 300 COLISEUM BLVD E
13F115431 22:26:42 30 TRAFFIC STOP 3800 TAYLOR ST
13F115432 22:30:53 48 SUSPICIOUS 3700 CENTRAL DR
13F115433 22:33:19 48,36 700 AURORA KNOLL LN
13F115434 22:39:28 58 SHOOTING 4800 GAYWOOD DR
13F115435 22:39:31 911 HANG UP 400 BIRCHTREE LN
13F115436 22:41:39 30 TRAFFIC STOP 700 JEFFERSON BLVD W & VAN BUREN S
13F115437 22:43:10 33,34 4300 HOBSON RD & STELLHORN RD
13F115438 22:54:39 96JO 2000 CHARTWELL DR
13F115439 23:00:55 15 ASSIST 1400 WELLS ST
13F115440 23:05:43 66 MENTALLY ILL 2100 ST MARYS AVE
13F115441 23:07:56 911 HANG UP 2400 CENTRAL DR
13F115442 23:08:04 33,34 1000 STATE BLVD W & ST MARYS AVE
13F115443 23:14:06 EMS 3500 MCCORMICK AVE
13F115444 23:18:42 30 TRAFFIC STOP 2100 MCKINNIE AVE & PLAZA DR
13F115445 23:20:09 66 MENTALLY ILL 3000 ST LOUIS AVE
13F115446 23:22:45 911 HANG UP 1000 COLISEUM BLVD N
13F115447 23:23:13 43 DISTURBANCE 2700 MARCY LN
13F115448 23:24:11 1 MEET 00 MAIN ST E
13F115449 23:25:53 14 WARRANT 2000 CHARTWELL DR
13F115450 23:26:44 30 TRAFFIC STOP 600 MAIN ST W & BROADWAY
13F115451 23:31:16 103 UNWANTED 4800 REED ST
13F115452 23:32:00 911 HANG UP 4100 SMITH ST
13F115453 23:37:17 48,35 1400 SPY RUN AVE
13F115454 23:37:46 103 UNWANTED 3400 SHERMAN BLVD
13F115455 23:41:31 30 TRAFFIC STOP 7800 COLDWATER RD & RILEY DR
13F115456 23:42:38 48,36 600 LILLIAN AVE
13F115457 23:43:10 43 DISTURBANCE 1400 STOPHLET ST
13F115458 23:47:48 48 SUSPICIOUS 4000 CLINTON ST N
13F115459 23:49:39 30 TRAFFIC STOP 3400 ANTHONY BLVD S & OXFORD ST
13F115460 23:50:22 96JO 6800 JOHN ST
13F115461 23:53:23 49 PROWLER 1400 FAYETTE DR
13F115462 23:55:30 33,34 4300 CLINTON ST N & COLISEUM BLVD
13F115463 23:56:35 30 TRAFFIC STOP 300 STATE BLVD E & SPY RUN AVE
13F115464 23:58:22 48,36 1700 WAYNE ST E
13F115465 23:59:38 23 VANDALISM 4100 JEFFERSON BLVD W
Amber Alert

All-America City